• Join FlightAware (Why Join?)
  • Login
  • US Flag 
05:38AM EDT


 

Airport Tracker/Info


-or-


 

Live Flight TrackerFlight Track Log ✈ AFL150 ✈ 19-Apr-2014 ✈ UUEE / SVO - MUHA / HAV

Flight Track Log - Related Links

Times and Time Zones

All times are in EDT time to prevent confusion due to time zone crossing. See the AFL150 flight status page for this flight to view local times or setup timezone preferences in your user account.

Time Position Orientation Groundspeed Altitude Reporting Facility
EDT Latitude Longitude Course Direction KTS MPH feet Rate Location/Type
06:27AM 56.1065 36.8097 307° West  Level Estimated
06:28AM 56.1754 36.6413 306° West  Level Estimated
06:29AM 56.2440 36.4722 306° West  Level Estimated
06:30AM 56.3123 36.3026 306° West  Level Estimated
06:31AM 56.3805 36.1323 306° West  Level Estimated
06:32AM 56.4484 35.9615 306° West  Level Estimated
06:33AM 56.5160 35.7900 306° West  Level Estimated
06:34AM 56.5835 35.6179 305° West  Level Estimated
06:35AM 56.6507 35.4452 305° West  Level Estimated
06:36AM 56.7176 35.2719 305° West  Level Estimated
06:37AM 56.7844 35.0979 305° West  Level Estimated
06:38AM 56.8508 34.9234 305° West  Level Estimated
06:39AM 56.9170 34.7482 305° West  Level Estimated
06:40AM 56.9830 34.5724 305° West  Level Estimated
06:41AM 57.0488 34.3960 304° West  Level Estimated
06:42AM 57.1142 34.2189 304° West  Level Estimated
06:43AM 57.1795 34.0413 304° West  Level Estimated
06:44AM 57.2445 33.8630 304° West  Level Estimated
06:45AM 57.3083 33.6865 304° West  Level Estimated
06:46AM 57.3719 33.5093 304° West  Level Estimated
06:47AM 57.4353 33.3315 304° West  Level Estimated
06:48AM 57.4984 33.1532 303° West  Level Estimated
06:49AM 57.5613 32.9742 303° West  Level Estimated
06:50AM 57.6239 32.7946 303° West  Level Estimated
06:51AM 57.6863 32.6143 303° West  Level Estimated
06:52AM 57.7484 32.4335 303° West  Level Estimated
06:52AM 56.5178 31.5369 278° West 468 539 34,000  Level FlightAware ADS-B (EVDA / DGP)
06:53AM 56.5308 31.3704 278° West 469 540 34,000  Level FlightAware ADS-B (EVDA / DGP)
06:54AM 56.5634 31.1466 290° West 468 539 34,000  Level FlightAware ADS-B (EVDA / DGP)
06:55AM 56.6166 30.9496 303° West 465 535 34,000  Level FlightAware ADS-B (EVDA / DGP)
06:56AM 56.7068 30.7383 311° West 464 534 34,000  Level FlightAware ADS-B (EVDA / DGP)
06:57AM 56.7877 30.5308 305° West 469 540 34,000  Level FlightAware ADS-B (EVDA / DGP)
06:58AM 56.8634 30.3290 304° West 472 543 34,000  Level FlightAware ADS-B (EVDA / DGP)
06:59AM 56.9384 30.1250 304° West 474 545 34,000  Level FlightAware ADS-B (EVDA / DGP)
07:00AM 57.0110 29.9256 304° West 476 548 34,000  Level FlightAware ADS-B (EVDA / DGP)
07:01AM 57.0931 29.6983 303° West 479 551 34,000  Level FlightAware ADS-B (EVDA / DGP)
07:02AM 57.1678 29.4893 303° West 481 554 34,000  Level FlightAware ADS-B (EVDA / DGP)
07:03AM 57.2403 29.2849 303° West 484 557 34,000  Level FlightAware ADS-B (EVDA / DGP)
07:04AM 57.3119 29.0813 303° West 485 558 34,000  Level FlightAware ADS-B (EVDA / DGP)
07:05AM 57.3874 28.8652 303° West 484 557 34,000  Level FlightAware ADS-B (EVDA / DGP)
07:06AM 57.4581 28.6606 303° West 485 558 34,000  Level FlightAware ADS-B (EVDA / DGP)
07:07AM 57.5281 28.4565 303° West 486 559 34,000  Level FlightAware ADS-B (EVDA / DGP)
07:08AM 57.6035 28.2352 302° West 488 562 34,000  Level FlightAware ADS-B (EVDA / DGP)
07:09AM 57.6687 28.0419 302° West 488 562 34,000  Level FlightAware ADS-B (EVDA / DGP)
07:10AM 57.7469 27.8080 302° West 490 564 34,000  Level FlightAware ADS-B (EVDA / DGP)
07:11AM 57.8180 27.5938 302° West 489 563 34,000  Level FlightAware ADS-B (EVDA / DGP)
07:12AM 57.8730 27.3578 290° West 501 577 34,000  Level FlightAware ADS-B (EVDA / DGP)
07:13AM 57.9185 27.1261 291° West 500 575 34,000  Level FlightAware ADS-B (EVDA / DGP)
07:14AM 57.9658 26.8894 291° West 499 574 34,000  Level FlightAware ADS-B (EVDA / DGP)
07:15AM 58.0169 26.6306 290° West 499 574 34,000  Level FlightAware ADS-B (EVDA / DGP)
07:16AM 58.0638 26.3901 290° West 498 573 34,000  Level FlightAware ADS-B (EVDA / DGP)
07:17AM 58.1124 26.1386 290° West 500 575 34,000  Level FlightAware ADS-B (EVDA / DGP)
07:17AM 58.1341 26.0248 290° West 502 578 34,000  Level FlightAware ADS-B (EVDA / DGP)
07:18AM 58.1660 25.8561 290° West 501 577 34,000  Level FlightAware ADS-B (EFHN)
07:19AM 58.2059 25.6436 289° West 499 574 34,000  Level FlightAware ADS-B (EVDA / DGP)
07:19AM 58.2310 25.5087 289° West 498 573 34,000  Level FlightAware ADS-B (EVDA / DGP)
07:20AM 58.2696 25.2995 289° West 496 571 34,000  Level FlightAware ADS-B (EVDA / DGP)
07:21AM 58.3169 25.0390 289° West 494 568 34,000  Level FlightAware ADS-B (EFHN)
07:22AM 58.3409 24.9056 289° West 492 566 34,000  Level FlightAware ADS-B (EFHN)
07:22AM 58.3707 24.7385 289° West 491 565 34,000  Level FlightAware ADS-B (EFHN)
07:23AM 58.3922 24.6173 289° West 491 565 34,000  Level FlightAware ADS-B (EFHN)
07:23AM 58.4103 24.5145 289° West 491 565 34,000  Level FlightAware ADS-B (EFHN)
07:26AM 58.5130 23.8395 286° West 492 566 34,000  Level FlightAware ADS-B (EFHN)
07:27AM 58.5386 23.6661 286° West 491 565 34,000  Level FlightAware ADS-B (EVDA / DGP)
07:28AM 58.5130 23.8395 286° West 491 565 34,000  Level FlightAware ADS-B (EFHN)
07:29AM 58.6349 22.9962 285° West 491 565 34,000  Level FlightAware ADS-B (EFHN)
07:30AM 58.6068 23.4618 296° West  Level Estimated
07:30AM 58.6521 22.8734 285° West 491 565 34,000  Level FlightAware ADS-B (EFHN)
07:31AM 58.6710 22.7368 285° West 491 565 34,000  Level FlightAware ADS-B (EFHN)
07:31AM 58.6884 22.6105 285° West 490 564 34,000  Level FlightAware ADS-B (EFHN)
07:32AM 58.7116 22.4405 285° West 489 563 34,000  Level FlightAware ADS-B (EFHN)
07:32AM 58.7338 22.2759 285° West 488 562 34,000  Level FlightAware ADS-B (EFHN)
07:33AM 58.7560 22.1097 284° West 487 560 34,000  Level FlightAware ADS-B (EFHN)
07:34AM 58.7777 21.9455 284° West 487 560 34,000  Level FlightAware ADS-B (EFHN)
07:34AM 58.8004 21.7721 284° West 486 559 34,000  Level FlightAware ADS-B (EFHN)
07:35AM 58.8181 21.6354 284° West 485 558 34,000  Level FlightAware ADS-B (EFHN)
07:36AM 58.8420 21.4475 284° West 486 559 34,000  Level FlightAware ADS-B (EFHN)
07:36AM 58.8592 21.3116 284° West 485 558 34,000  Level FlightAware ADS-B (ESKB)
07:37AM 58.8766 21.1787 287° West 483 556 34,000  Level FlightAware ADS-B (ESKB)
07:38AM 58.9244 20.9068 288° West 481 554 34,000  Level FlightAware ADS-B (ESKB)
07:40AM 58.9963 20.4693 287° West 482 555 34,000  Level FlightAware ADS-B (EFHN)
07:40AM 59.0196 20.3246 287° West 482 555 34,000  Level FlightAware ADS-B (ESKB)
07:41AM 59.0449 20.1663 287° West 483 556 34,000  Level FlightAware ADS-B (ESKB)
07:41AM 59.0650 20.0393 287° West 483 556 34,000  Level FlightAware ADS-B (EFHN)
07:42AM 59.0848 19.9133 287° West 482 555 34,000  Level FlightAware ADS-B (ESKB)
07:43AM 59.1109 19.7458 287° West 482 555 34,000  Level FlightAware ADS-B (ESKB)
07:43AM 59.1361 19.5827 287° West 480 552 34,000  Level FlightAware ADS-B (ESKB)
07:44AM 59.1617 19.4147 287° West 480 552 34,000  Level FlightAware ADS-B (ESKB)
07:45AM 59.1881 19.2400 286° West 480 552 34,000  Level FlightAware ADS-B (ESKB)
07:45AM 59.2129 19.0747 286° West 480 552 34,000  Level FlightAware ADS-B (ESKB)
07:46AM 59.2371 18.9109 286° West 480 552 34,000  Level FlightAware ADS-B (ESKB)
07:47AM 59.2610 18.7481 286° West 480 552 34,000  Level FlightAware ADS-B (ESKB)
07:47AM 59.2852 18.5823 286° West 479 551 34,000  Level FlightAware ADS-B (ESKB)
07:48AM 59.3096 18.4122 286° West 478 550 34,000  Level FlightAware ADS-B (ESKB)
07:49AM 59.3332 18.2467 285° West 477 549 34,000  Level FlightAware ADS-B (ESKB)
07:49AM 59.3557 18.0871 285° West 478 550 34,000  Level FlightAware ADS-B (ESKB)
07:50AM 59.3798 17.9139 285° West 478 550 34,000  Level FlightAware ADS-B (ESKB)
07:51AM 59.4023 17.7511 285° West 477 549 34,000  Level FlightAware ADS-B (ESKB)
07:51AM 59.4259 17.5784 285° West 476 548 34,000  Level FlightAware ADS-B (ESKB)
07:52AM 59.4603 17.3229 285° West 474 545 34,000  Level FlightAware ADS-B (ESKB)
07:53AM 59.4818 17.1608 285° West 472 543 34,000  Level FlightAware ADS-B (ESKB)
07:54AM 59.5016 17.0108 284° West 471 542 34,000  Level FlightAware ADS-B (ESKB)
07:54AM 59.5258 16.8245 284° West 471 542 34,000  Level FlightAware ADS-B (ESKB)
07:55AM 59.5471 16.6585 284° West 470 541 34,000  Level FlightAware ADS-B (ESKB)
07:56AM 59.5649 16.5178 284° West 471 542 34,000  Level FlightAware ADS-B (ESKB)
07:56AM 59.5890 16.3264 284° West 471 542 34,000  Level FlightAware ADS-B (ESKB)
07:57AM 59.6079 16.1745 284° West 471 542 34,000  Level FlightAware ADS-B (ESKB)
07:58AM 59.6478 15.8476 283° West 472 543 34,100 300 Climbing FlightAware ADS-B (ESKB)
07:59AM 59.6741 15.6290 282° West 466 536 34,700 600 Climbing FlightAware ADS-B (KSAN)
08:00AM 59.6895 15.4988 282° West 465 535 35,000 660 Climbing FlightAware ADS-B (KSAN)
08:00AM 59.7040 15.3749 282° West 464 534 35,400 660 Climbing FlightAware ADS-B (KSAN)
08:01AM 59.7261 15.1853 282° West 463 533 35,900 420 Climbing FlightAware ADS-B (KSAN)
08:01AM 59.7407 15.0574 283° West 464 534 36,000 60 Climbing FlightAware ADS-B (KSAN)
08:02AM 59.7553 14.9290 283° West 462 532 36,000  Level FlightAware ADS-B (KSAN)
08:02AM 59.7695 14.8027 283° West 461 531 36,000  Level FlightAware ADS-B (KSAN)
08:03AM 59.7835 14.6771 282° West 461 531 36,000  Level FlightAware ADS-B (KSAN)
08:03AM 59.7970 14.5552 282° West 460 529 36,000  Level FlightAware ADS-B (KSAN)
08:04AM 59.8172 14.3691 282° West 457 526 36,000  Level FlightAware ADS-B (KSAN)
08:05AM 59.8302 14.2497 282° West 456 525 36,000  Level FlightAware ADS-B (KSAN)
08:05AM 59.8434 14.1260 281° West 453 521 36,000  Level FlightAware ADS-B (KSAN)
08:06AM 59.8560 14.0067 281° West 453 521 36,000  Level FlightAware ADS-B (KSAN)
08:06AM 59.8693 13.8806 281° West 453 521 36,000  Level FlightAware ADS-B (KSAN)
08:07AM 59.8877 13.7030 281° West 453 521 36,000  Level FlightAware ADS-B (KSAN)
08:08AM 59.9078 13.5053 280° West 452 520 36,000  Level FlightAware ADS-B (KSAN)
08:08AM 59.9209 13.3765 281° West 451 519 36,000  Level FlightAware ADS-B (KSAN)
08:09AM 59.9470 13.2012 287° West 450 518 36,000  Level FlightAware ADS-B (KSAN)
08:09AM 59.9662 13.0730 287° West 450 518 36,000  Level FlightAware ADS-B (KSAN)
08:10AM 59.9839 12.9546 287° West 450 518 36,000  Level FlightAware ADS-B (KSAN)
08:10AM 60.0018 12.8344 286° West 449 517 36,000  Level FlightAware ADS-B (KSAN)
08:11AM 60.0276 12.6587 285° West 446 513 36,000  Level FlightAware ADS-B (KSAN)
08:12AM 60.0453 12.5371 285° West 444 511 36,000  Level FlightAware ADS-B (KSAN)
08:12AM 60.0628 12.4163 285° West 444 511 36,000  Level FlightAware ADS-B (KSAN)
08:13AM 60.0797 12.2983 285° West 443 510 36,000  Level FlightAware ADS-B (KSAN)
08:13AM 60.0981 12.1693 285° West 444 511 36,000  Level FlightAware ADS-B (KSAN)
08:14AM 60.1226 11.9959 285° West 444 511 36,000  Level FlightAware ADS-B (KSAN)
08:15AM 60.1483 11.8114 285° West 444 511 36,000  Level FlightAware ADS-B (KSAN)
08:15AM 60.1714 11.6442 284° West 445 512 36,000 -60 Level FlightAware ADS-B (KSAN)
08:18AM 60.2316 11.1943 285° West  Level Estimated
08:19AM 60.2609 10.9705 285° West  Level Estimated
08:20AM 60.2898 10.7464 285° West  Level Estimated
08:21AM 60.3184 10.5219 284° West  Level Estimated
08:22AM 60.3465 10.2970 284° West  Level Estimated
08:23AM 60.3743 10.0717 284° West  Level Estimated
08:24AM 60.4017 9.8460 284° West  Level Estimated
08:25AM 60.4288 9.6199 284° West  Level Estimated
08:26AM 60.4554 9.3935 284° West  Level Estimated
08:27AM 60.4817 9.1667 283° West  Level Estimated
08:28AM 60.5075 8.9395 283° West  Level Estimated
08:29AM 60.5330 8.7120 283° West  Level Estimated
08:30AM 60.5581 8.4841 283° West  Level Estimated
08:31AM 60.5828 8.2559 283° West  Level Estimated
08:32AM 60.6071 8.0273 282° West  Level Estimated
08:33AM 60.6311 7.7984 282° West  Level Estimated
08:34AM 60.6546 7.5691 282° West  Level Estimated
08:35AM 60.6777 7.3395 282° West  Level Estimated
08:36AM 60.7005 7.1096 282° West  Level Estimated
08:37AM 60.7228 6.8794 281° West  Level Estimated
08:38AM 60.7448 6.6488 281° West  Level Estimated
08:39AM 60.7664 6.4180 281° West  Level Estimated
08:40AM 60.7875 6.1868 281° West  Level Estimated
08:41AM 60.8083 5.9553 281° West  Level Estimated
08:42AM 60.8287 5.7235 280° West  Level Estimated
08:43AM 60.8487 5.4914 280° West  Level Estimated
08:44AM 60.8682 5.2591 280° West  Level Estimated
08:45AM 60.8874 5.0264 280° West  Level Estimated
08:46AM 60.9062 4.7935 280° West  Level Estimated
08:47AM 60.9245 4.5603 279° West  Level Estimated
08:48AM 60.9425 4.3269 279° West  Level Estimated
08:49AM 60.9600 4.0931 279° West  Level Estimated
08:50AM 60.9772 3.8592 279° West  Level Estimated
08:51AM 60.9939 3.6249 278° West  Level Estimated
08:52AM 61.0103 3.3905 278° West  Level Estimated
08:53AM 61.0262 3.1558 278° West  Level Estimated
08:54AM 61.0417 2.9208 278° West  Level Estimated
08:55AM 61.0569 2.6857 278° West  Level Estimated
08:56AM 61.0716 2.4503 277° West  Level Estimated
08:57AM 61.0858 2.2147 277° West  Level Estimated
08:58AM 61.0997 1.9789 277° West  Level Estimated
08:59AM 61.1132 1.7428 277° West  Level Estimated
09:00AM 61.1263 1.5066 277° West  Level Estimated
09:01AM 61.1389 1.2702 276° West  Level Estimated
09:02AM 61.1512 1.0336 276° West  Level Estimated
09:03AM 61.1630 0.7969 276° West  Level Estimated
09:04AM 61.1744 0.5599 276° West  Level Estimated
09:05AM 61.1854 0.3228 276° West  Level Estimated
09:06AM 61.1960 0.0855 275° West  Level Estimated
09:07AM 61.2062 -0.1519 275° West  Level Estimated
09:08AM 61.2159 -0.3895 275° West  Level Estimated
09:09AM 61.2253 -0.6272 275° West  Level Estimated
09:10AM 61.2342 -0.8651 275° West  Level Estimated
09:11AM 61.2427 -1.1031 274° West  Level Estimated
09:12AM 61.2508 -1.3412 274° West  Level Estimated
09:13AM 61.2584 -1.5795 274° West  Level Estimated
09:14AM 61.2657 -1.8178 274° West  Level Estimated
09:15AM 61.2725 -2.0563 274° West  Level Estimated
09:16AM 61.2789 -2.2949 273° West  Level Estimated
09:17AM 61.2849 -2.5335 273° West  Level Estimated
09:18AM 61.2905 -2.7723 273° West  Level Estimated
09:19AM 61.2957 -3.0111 273° West  Level Estimated
09:20AM 61.3004 -3.2500 272° West  Level Estimated
09:21AM 61.3047 -3.4890 272° West  Level Estimated
09:22AM 61.3086 -3.7280 272° West  Level Estimated
09:23AM 61.3121 -3.9671 272° West  Level Estimated
09:24AM 61.3152 -4.2062 272° West  Level Estimated
09:25AM 61.3178 -4.4454 271° West  Level Estimated
09:26AM 61.3200 -4.6846 271° West  Level Estimated
09:27AM 61.3218 -4.9239 271° West  Level Estimated
09:28AM 61.3232 -5.1632 271° West  Level Estimated
09:29AM 61.3241 -5.4025 271° West  Level Estimated
09:30AM 61.3247 -5.6418 270° West  Level Estimated
09:31AM 61.3248 -5.8811 270° West  Level Estimated
09:32AM 61.3245 -6.1204 270° West  Level Estimated
09:33AM 61.3237 -6.3597 270° West  Level Estimated
09:34AM 61.3226 -6.5990 270° West  Level Estimated
09:35AM 61.3210 -6.8383 269° West  Level Estimated
09:36AM 61.3190 -7.0775 269° West  Level Estimated
09:37AM 61.3166 -7.3167 269° West  Level Estimated
09:38AM 61.3138 -7.5559 269° West  Level Estimated
09:39AM 61.3105 -7.7950 268° West  Level Estimated
09:40AM 61.3069 -8.0341 268° West  Level Estimated
09:41AM 61.3028 -8.2731 268° West  Level Estimated
09:42AM 61.2983 -8.5120 268° West  Level Estimated
09:43AM 61.2933 -8.7509 268° West  Level Estimated
09:44AM 61.2880 -8.9897 267° West  Level Estimated
09:45AM 61.2822 -9.2284 267° West  Level Estimated
09:46AM 61.2760 -9.4670 267° West  Level Estimated
09:47AM 61.2694 -9.7055 267° West  Level Estimated
09:48AM 61.2624 -9.9439 267° West  Level Estimated
09:49AM 61.2549 -10.1822 266° West  Level Estimated
09:50AM 61.2471 -10.4204 266° West  Level Estimated
09:51AM 61.2388 -10.6585 266° West  Level Estimated
09:52AM 61.2301 -10.8964 266° West  Level Estimated
09:53AM 61.2210 -11.1342 266° West  Level Estimated
09:54AM 61.2115 -11.3719 265° West  Level Estimated
09:55AM 61.2015 -11.6094 265° West  Level Estimated
09:56AM 61.1912 -11.8468 265° West  Level Estimated
09:57AM 61.1804 -12.0840 265° West  Level Estimated
09:58AM 61.1692 -12.3210 265° West  Level Estimated
09:59AM 61.1576 -12.5579 264° West  Level Estimated
10:00AM 61.1456 -12.7946 264° West  Level Estimated
10:01AM 61.1331 -13.0311 264° West  Level Estimated
10:02AM 61.1203 -13.2674 264° West  Level Estimated
10:03AM 61.1070 -13.5035 263° West  Level Estimated
10:04AM 61.0934 -13.7395 263° West  Level Estimated
10:05AM 61.0793 -13.9752 263° West  Level Estimated
10:06AM 61.0648 -14.2107 263° West  Level Estimated
10:07AM 61.0499 -14.4460 263° West  Level Estimated
10:08AM 61.0346 -14.6810 262° West  Level Estimated
10:09AM 61.0189 -14.9159 262° West  Level Estimated
10:10AM 61.0028 -15.1505 262° West  Level Estimated
10:11AM 60.9863 -15.3848 262° West  Level Estimated
10:12AM 60.9693 -15.6189 262° West  Level Estimated
10:13AM 60.9520 -15.8528 261° West  Level Estimated
10:14AM 60.9342 -16.0864 261° West  Level Estimated
10:15AM 60.9161 -16.3197 261° West  Level Estimated
10:16AM 60.8975 -16.5528 261° West  Level Estimated
10:17AM 60.8786 -16.7856 261° West  Level Estimated
10:18AM 60.8592 -17.0181 260° West  Level Estimated
10:19AM 60.8395 -17.2503 260° West  Level Estimated
10:20AM 60.8193 -17.4823 260° West  Level Estimated
10:21AM 60.7988 -17.7139 260° West  Level Estimated
10:22AM 60.7778 -17.9452 260° West  Level Estimated
10:23AM 60.7565 -18.1763 259° West  Level Estimated
10:24AM 60.7347 -18.4070 259° West  Level Estimated
10:25AM 60.7126 -18.6374 259° West  Level Estimated
10:26AM 60.6900 -18.8675 259° West  Level Estimated
10:27AM 60.6671 -19.0973 259° West  Level Estimated
10:28AM 60.6438 -19.3267 258° West  Level Estimated
10:29AM 60.6201 -19.5558 258° West  Level Estimated
10:30AM 60.5960 -19.7846 258° West  Level Estimated
10:31AM 60.5714 -20.0130 258° West  Level Estimated
10:32AM 60.5466 -20.2411 258° West  Level Estimated
10:33AM 60.5213 -20.4688 257° West  Level Estimated
10:34AM 60.4956 -20.6962 257° West  Level Estimated
10:35AM 60.4696 -20.9232 257° West  Level Estimated
10:36AM 60.4431 -21.1498 257° West  Level Estimated
10:37AM 60.4163 -21.3761 257° West  Level Estimated
10:38AM 60.3891 -21.6019 256° West  Level Estimated
10:39AM 60.3615 -21.8274 256° West  Level Estimated
10:40AM 60.3336 -22.0526 256° West  Level Estimated
10:41AM 60.3052 -22.2773 256° West  Level Estimated
10:42AM 60.2765 -22.5016 256° West  Level Estimated
10:43AM 60.2474 -22.7256 255° West  Level Estimated
10:44AM 60.2179 -22.9491 255° West  Level Estimated
10:45AM 60.1881 -23.1723 255° West  Level Estimated
10:46AM 60.1579 -23.3950 255° West  Level Estimated
10:47AM 60.1273 -23.6173 255° West  Level Estimated
10:48AM 60.0963 -23.8392 254° West  Level Estimated
10:49AM 60.0650 -24.0607 254° West  Level Estimated
10:50AM 60.0332 -24.2818 254° West  Level Estimated
10:51AM 60.0012 -24.5024 254° West  Level Estimated
10:52AM 59.9687 -24.7226 254° West  Level Estimated
10:53AM 59.9359 -24.9424 253° West  Level Estimated
10:54AM 59.9027 -25.1617 253° West  Level Estimated
10:55AM 59.8692 -25.3806 253° West  Level Estimated
10:56AM 59.8353 -25.5991 253° West  Level Estimated
10:57AM 59.8010 -25.8171 253° West  Level Estimated
10:58AM 59.7664 -26.0346 253° West  Level Estimated
10:59AM 59.7314 -26.2517 252° West  Level Estimated
11:00AM 59.6961 -26.4684 252° West  Level Estimated
11:01AM 59.6604 -26.6846 252° West  Level Estimated
11:02AM 59.6243 -26.9003 252° West  Level Estimated
11:03AM 59.5879 -27.1156 252° West  Level Estimated
11:04AM 59.5512 -27.3304 251° West  Level Estimated
11:05AM 59.5141 -27.5447 251° West  Level Estimated
11:06AM 59.4766 -27.7585 251° West  Level Estimated
11:07AM 59.4388 -27.9719 251° West  Level Estimated
11:08AM 59.4007 -28.1848 251° West  Level Estimated
11:09AM 59.3622 -28.3972 251° West  Level Estimated
11:10AM 59.3233 -28.6091 250° West  Level Estimated
11:11AM 59.2841 -28.8206 250° West  Level Estimated
11:12AM 59.2446 -29.0315 250° West  Level Estimated
11:13AM 59.2047 -29.2420 250° West  Level Estimated
11:14AM 59.1645 -29.4520 250° West  Level Estimated
11:15AM 59.1240 -29.6615 249° West  Level Estimated
11:16AM 59.0831 -29.8704 249° West  Level Estimated
11:17AM 59.0419 -30.0789 249° West  Level Estimated
11:18AM 59.0003 -30.2869 249° West  Level Estimated
11:19AM 58.9585 -30.4944 249° West  Level Estimated
11:20AM 58.9162 -30.7013 249° West  Level Estimated
11:21AM 58.8737 -30.9078 248° West  Level Estimated
11:22AM 58.8308 -31.1138 248° West  Level Estimated
11:23AM 58.7876 -31.3192 248° West  Level Estimated
11:24AM 58.7441 -31.5241 248° West  Level Estimated
11:25AM 58.7002 -31.7285 248° West  Level Estimated
11:26AM 58.6561 -31.9324 247° West  Level Estimated
11:27AM 58.6116 -32.1358 247° West  Level Estimated
11:28AM 58.5668 -32.3387 247° West  Level Estimated
11:29AM 58.5216 -32.5410 247° West  Level Estimated
11:30AM 58.4762 -32.7429 247° West  Level Estimated
11:31AM 58.4304 -32.9442 247° West  Level Estimated
11:32AM 58.3843 -33.1449 246° West  Level Estimated
11:33AM 58.3379 -33.3452 246° West  Level Estimated
11:34AM 58.2912 -33.5449 246° West  Level Estimated
11:35AM 58.2442 -33.7441 246° West  Level Estimated
11:36AM 58.1969 -33.9428 246° West  Level Estimated
11:37AM 58.1493 -34.1409 246° West  Level Estimated
11:38AM 58.1013 -34.3385 245° Southwest  Level Estimated
11:39AM 58.0531 -34.5356 245° Southwest  Level Estimated
11:40AM 58.0045 -34.7321 245° Southwest  Level Estimated
11:41AM 57.9557 -34.9281 245° Southwest  Level Estimated
11:42AM 57.9065 -35.1236 245° Southwest  Level Estimated
11:43AM 57.8571 -35.3185 245° Southwest  Level Estimated
11:44AM 57.8057 -35.5191 244° Southwest  Level Estimated
11:45AM 57.7541 -35.7190 244° Southwest  Level Estimated
11:46AM 57.7021 -35.9184 244° Southwest  Level Estimated
11:47AM 57.6499 -36.1172 244° Southwest  Level Estimated
11:48AM 57.5973 -36.3155 244° Southwest  Level Estimated
11:49AM 57.5444 -36.5132 244° Southwest  Level Estimated
11:50AM 57.4912 -36.7103 243° Southwest  Level Estimated
11:51AM 57.4377 -36.9068 243° Southwest  Level Estimated
11:52AM 57.3839 -37.1027 243° Southwest  Level Estimated
11:53AM 57.3298 -37.2981 243° Southwest  Level Estimated
11:54AM 57.2754 -37.4929 243° Southwest  Level Estimated
11:55AM 57.2206 -37.6871 243° Southwest  Level Estimated
11:56AM 57.1656 -37.8808 242° Southwest  Level Estimated
11:57AM 57.1103 -38.0738 242° Southwest  Level Estimated
11:58AM 57.0547 -38.2663 242° Southwest  Level Estimated
11:59AM 56.9988 -38.4582 242° Southwest  Level Estimated
12:00PM 56.9426 -38.6496 242° Southwest  Level Estimated
12:01PM 56.8861 -38.8403 242° Southwest  Level Estimated
12:02PM 56.8294 -39.0305 241° Southwest  Level Estimated
12:03PM 56.7723 -39.2201 241° Southwest  Level Estimated
12:04PM 56.7150 -39.4091 241° Southwest  Level Estimated
12:05PM 56.6573 -39.5976 241° Southwest  Level Estimated
12:06PM 56.5994 -39.7854 241° Southwest  Level Estimated
12:07PM 56.5412 -39.9727 241° Southwest  Level Estimated
12:08PM 56.4827 -40.1595 240° Southwest  Level Estimated
12:09PM 56.4240 -40.3456 240° Southwest  Level Estimated
12:10PM 56.3649 -40.5312 240° Southwest  Level Estimated
12:11PM 56.3056 -40.7161 240° Southwest  Level Estimated
12:12PM 56.2460 -40.9006 240° Southwest  Level Estimated
12:13PM 56.1861 -41.0844 240° Southwest  Level Estimated
12:14PM 56.1260 -41.2677 240° Southwest  Level Estimated
12:15PM 56.0656 -41.4504 239° Southwest  Level Estimated
12:16PM 56.0049 -41.6325 239° Southwest  Level Estimated
12:17PM 55.9440 -41.8140 239° Southwest  Level Estimated
12:18PM 55.8828 -41.9950 239° Southwest  Level Estimated
12:19PM 55.8213 -42.1754 239° Southwest  Level Estimated
12:20PM 55.7596 -42.3553 239° Southwest  Level Estimated
12:21PM 55.6976 -42.5345 239° Southwest  Level Estimated
12:22PM 55.6353 -42.7132 238° Southwest  Level Estimated
12:23PM 55.5728 -42.8914 238° Southwest  Level Estimated
12:24PM 55.5100 -43.0689 238° Southwest  Level Estimated
12:25PM 55.4470 -43.2459 238° Southwest  Level Estimated
12:26PM 55.3837 -43.4224 238° Southwest  Level Estimated
12:27PM 55.3202 -43.5982 238° Southwest  Level Estimated
12:28PM 55.2564 -43.7735 237° Southwest  Level Estimated
12:29PM 55.1924 -43.9483 237° Southwest  Level Estimated
12:30PM 55.1281 -44.1224 237° Southwest  Level Estimated
12:31PM 55.0635 -44.2961 237° Southwest  Level Estimated
12:32PM 54.9987 -44.4691 237° Southwest  Level Estimated
12:32PM 63.1333 -54.9333 236° Southwest 340 391 35,000  Level Gander Center
12:33PM 54.9337 -44.6416 237° Southwest  Level Estimated
12:33PM 63.0833 -55.2000 248° West 470 541 35,000  Level Gander Center
12:34PM 54.8685 -44.8135 237° Southwest  Level Estimated
12:34PM 63.0333 -55.4667 248° West 470 541 35,000  Level Gander Center
12:35PM 54.8029 -44.9849 236° Southwest  Level Estimated
12:36PM 54.7372 -45.1558 236° Southwest  Level Estimated
12:36PM 62.9333 -55.9667 246° West 460 529 35,000  Level Gander Center
12:37PM 54.6678 -45.3348 236° Southwest  Level Estimated
12:37PM 62.8833 -56.2333 248° West 460 529 35,000  Level Gander Center
12:38PM 62.8167 -56.5000 241° Southwest 470 541 35,000  Level Gander Center
12:39PM 62.7667 -56.7500 246° West 470 541 35,000  Level Gander Center
12:40PM 62.7167 -56.9833 245° Southwest 460 529 35,000  Level Gander Center
12:41PM 62.6667 -57.2333 247° West 460 529 35,000  Level Gander Center
12:42PM 62.5833 -57.5000 236° Southwest 460 529 35,000  Level Gander Center
12:43PM 62.6167 -57.5833 311° West 440 506 35,000  Level Montreal Center
12:44PM 62.5000 -57.8833 230° Southwest 460 529 35,000  Level Montreal Center
12:45PM 62.4333 -58.1333 240° Southwest 470 541 35,000  Level Montreal Center
12:46PM 62.3833 -58.3833 247° West 470 541 35,000  Level Montreal Center
12:47PM 62.3333 -58.6167 245° Southwest 470 541 35,000  Level Montreal Center
12:48PM 62.2667 -58.8667 240° Southwest 460 529 35,000  Level Montreal Center
12:49PM 62.2167 -59.1167 247° West 460 529 35,000  Level Montreal Center
12:50PM 62.2667 -59.3667 293° West 440 506 35,000  Level Gander Center
12:51PM 62.1000 -59.5500 207° Southwest 380 437 35,000  Level Montreal Center
12:52PM 62.0333 -59.8000 240° Southwest 470 541 35,000  Level Montreal Center
12:53PM 61.9500 -60.0333 233° Southwest 470 541 35,000  Level Montreal Center
12:54PM 61.8667 -60.2167 226° Southwest 470 541 35,000  Level Montreal Center
12:55PM 61.7833 -60.4333 231° Southwest 470 541 35,000  Level Montreal Center
12:56PM 61.7000 -60.6500 231° Southwest 470 541 35,000  Level Montreal Center
12:57PM 61.6333 -60.9333 244° Southwest 480 552 35,000  Level Montreal Center
12:58PM 61.5667 -61.1833 241° Southwest 470 541 35,000  Level Gander Center
12:59PM 61.5167 -61.3500 238° Southwest 460 529 35,000  Level Gander Center
01:00PM 61.4333 -61.6000 235° Southwest 470 541 35,000  Level Gander Center
01:00PM 61.3667 -61.7667 230° Southwest 470 541 35,000  Level Gander Center
01:01PM 61.2833 -61.9667 229° Southwest 460 529 35,000  Level Gander Center
01:02PM 61.2167 -62.2167 241° Southwest 460 529 35,000  Level Gander Center
01:03PM 61.1500 -62.4167 235° Southwest 470 541 35,000 240 Level Gander Center
01:04PM 61.0500 -62.6167 224° Southwest 470 541 35,500 480 Climbing Gander Center
01:05PM 60.9667 -62.8833 237° Southwest 480 552 36,000 240 Climbing Gander Center
01:06PM 60.8833 -63.0833 229° Southwest 480 552 36,000  Level Gander Center
01:07PM 60.8167 -63.3000 238° Southwest 480 552 36,000  Level Gander Center
01:08PM 60.7500 -63.5333 240° Southwest 470 541 36,000  Level Gander Center
01:09PM 60.6667 -63.7167 227° Southwest 470 541 36,000  Level Gander Center
01:10PM 60.5667 -63.9500 229° Southwest 470 541 36,000  Level Gander Center
01:11PM 60.5000 -64.1500 236° Southwest 470 541 36,000  Level Gander Center
01:12PM 60.4167 -64.3500 230° Southwest 470 541 36,000  Level Gander Center
01:13PM 60.3500 -64.5833 240° Southwest 470 541 36,000  Level Gander Center
01:14PM 60.2500 -64.7667 222° Southwest 470 541 36,000  Level Gander Center
01:15PM 60.1833 -64.9667 236° Southwest 470 541 36,000  Level Gander Center
01:16PM 60.0833 -65.1833 227° Southwest 470 541 36,000  Level Gander Center
01:17PM 59.9833 -65.3333 217° Southwest 470 541 36,000  Level Gander Center
01:18PM 59.8833 -65.5333 225° Southwest 470 541 36,000  Level Gander Center
01:19PM 59.8000 -65.7167 228° Southwest 480 552 36,000  Level Gander Center
01:20PM 59.6833 -65.8667 213° Southwest 480 552 36,000  Level Gander Center
01:21PM 59.6000 -66.0500 228° Southwest 480 552 36,000  Level Gander Center
01:22PM 59.5000 -66.2000 217° Southwest 480 552 36,000  Level Gander Center
01:23PM 59.3833 -66.3833 219° Southwest 480 552 36,000  Level Gander Center
01:24PM 59.3000 -66.5667 228° Southwest 480 552 36,000  Level Gander Center
01:25PM 59.2000 -66.7167 218° Southwest 480 552 36,000  Level Gander Center
01:26PM 59.0833 -66.9000 219° Southwest 480 552 36,000  Level Gander Center
01:27PM 59.0000 -67.0333 220° Southwest 480 552 36,000  Level Gander Center
01:28PM 58.8833 -67.2167 219° Southwest 480 552 36,000  Level Gander Center
01:29PM 58.7833 -67.4000 224° Southwest 480 552 36,000  Level Gander Center
01:30PM 58.6667 -67.5667 217° Southwest 480 552 36,000  Level Gander Center
01:31PM 58.5667 -67.7167 218° Southwest 480 552 36,000  Level Gander Center
01:32PM 58.4667 -67.8833 221° Southwest 480 552 36,000  Level Gander Center
01:33PM 58.3667 -68.0167 215° Southwest 480 552 36,000  Level Gander Center
01:34PM 58.2500 -68.2000 220° Southwest 480 552 36,000  Level Gander Center
01:35PM 58.1667 -68.3667 227° Southwest 490 564 36,000  Level Gander Center
01:36PM 58.0500 -68.5000 211° Southwest 480 552 36,000  Level Gander Center
01:37PM 57.9500 -68.6667 222° Southwest 490 564 36,000  Level Gander Center
01:38PM 57.8333 -68.8167 214° Southwest 490 564 36,000  Level Gander Center
01:40PM 57.7167 -68.9667 214° Southwest 480 552 36,000  Level Gander Center
01:41PM 57.5833 -69.1333 214° Southwest 490 564 36,000  Level Gander Center
01:42PM 57.4667 -69.2667 212° Southwest 480 552 36,000  Level Montreal Center
01:43PM 57.3667 -69.4000 216° Southwest 480 552 36,000  Level Montreal Center
01:44PM 57.2500 -69.5500 215° Southwest 480 552 36,000  Level Montreal Center
01:45PM 57.1333 -69.7000 215° Southwest 480 552 36,000  Level Montreal Center
01:46PM 57.0500 -69.8333 221° Southwest 480 552 36,000  Level Montreal Center
01:47PM 56.9333 -69.9667 212° Southwest 480 552 36,000  Level Montreal Center
01:48PM 56.8167 -70.1167 215° Southwest 480 552 36,000  Level Montreal Center
01:49PM 56.7167 -70.2500 216° Southwest 480 552 36,000  Level Montreal Center
01:50PM 56.6000 -70.4000 215° Southwest 480 552 36,000  Level Montreal Center
01:51PM 56.4833 -70.5333 212° Southwest 480 552 36,000  Level Montreal Center
01:52PM 56.3833 -70.6667 216° Southwest 480 552 36,000  Level Montreal Center
01:53PM 56.2667 -70.8000 212° Southwest 480 552 36,000  Level Montreal Center
01:54PM 56.1500 -70.9500 216° Southwest 490 564 36,000  Level Montreal Center
01:55PM 56.0333 -71.0833 213° Southwest 490 564 36,000  Level Montreal Center
01:56PM 55.9333 -71.2167 217° Southwest 490 564 36,000  Level Montreal Center
01:57PM 55.8000 -71.3500 209° Southwest 490 564 36,000  Level Montreal Center
01:58PM 55.6833 -71.4833 213° Southwest 480 552 36,000  Level Montreal Center
01:59PM 55.5833 -71.6167 217° Southwest 480 552 36,000  Level Montreal Center
02:00PM 55.4667 -71.7500 213° Southwest 490 564 36,000  Level Montreal Center
02:01PM 55.3667 -71.8667 214° Southwest 490 564 36,000  Level Montreal Center
02:02PM 55.2500 -72.0000 213° Southwest 490 564 36,000  Level Montreal Center
02:03PM 55.1333 -72.1333 213° Southwest 490 564 36,000  Level Montreal Center
02:04PM 55.0167 -72.2667 213° Southwest 480 552 36,000  Level Montreal Center
02:05PM 54.9000 -72.3833 210° Southwest 490 564 36,000  Level Montreal Center
02:06PM 54.7833 -72.5167 213° Southwest 490 564 36,000  Level Montreal Center
02:07PM 54.6667 -72.6500 213° Southwest 490 564 36,000  Level Montreal Center
02:08PM 54.5667 -72.7667 214° Southwest 480 552 36,000  Level Montreal Center
02:09PM 54.4333 -72.9167 213° Southwest 480 552 36,000  Level Montreal Center
02:10PM 54.3333 -73.0500 218° Southwest 480 552 36,000  Level Montreal Center
02:11PM 54.2167 -73.1667 210° Southwest 480 552 36,000  Level Montreal Center
02:12PM 54.1000 -73.3000 214° Southwest 480 552 36,000  Level Montreal Center
02:13PM 53.9833 -73.4167 210° Southwest 480 552 36,000  Level Montreal Center
02:14PM 53.8667 -73.5333 211° Southwest 490 564 36,000  Level Montreal Center
02:15PM 53.7500 -73.6500 211° Southwest 490 564 36,000  Level Montreal Center
02:16PM 53.6333 -73.7500 207° Southwest 490 564 36,000  Level Montreal Center
02:17PM 53.5000 -73.8667 208° Southwest 490 564 36,000  Level Montreal Center
02:18PM 53.3833 -73.9667 207° Southwest 490 564 36,000  Level Montreal Center
02:19PM 53.2667 -74.0833 211° Southwest 490 564 36,000  Level Montreal Center
02:20PM 53.1333 -74.1667 201° Southwest 490 564 36,000  Level Montreal Center
02:22PM 52.8833 -74.3667 206° Southwest 490 564 36,000  Level Montreal Center
02:23PM 52.7667 -74.4667 207° Southwest 490 564 36,000  Level Montreal Center
02:24PM 52.6500 -74.5833 211° Southwest 490 564 36,000  Level Montreal Center
02:25PM 52.5167 -74.6667 201° Southwest 490 564 36,000  Level Montreal Center
02:26PM 52.4000 -74.7833 211° Southwest 490 564 36,000  Level Montreal Center
02:27PM 52.2833 -74.8667 204° Southwest 480 552 36,000  Level Montreal Center
02:28PM 52.1500 -74.9833 208° Southwest 490 564 36,000  Level Montreal Center
02:29PM 52.0333 -75.0667 204° Southwest 490 564 36,000  Level Montreal Center
02:30PM 51.9000 -75.1667 205° Southwest 490 564 36,000  Level Montreal Center
02:31PM 51.7833 -75.2500 204° Southwest 480 552 36,000  Level Montreal Center
02:32PM 51.6667 -75.3333 204° Southwest 480 552 36,000  Level Montreal Center
02:33PM 51.5333 -75.4500 209° Southwest 480 552 36,000  Level Montreal Center
02:34PM 51.4167 -75.5333 204° Southwest 480 552 36,000  Level Montreal Center
02:35PM 51.2833 -75.6500 209° Southwest 480 552 36,000  Level Montreal Center
02:36PM 51.1667 -75.7167 200° South 480 552 36,000  Level Montreal Center
02:37PM 51.0500 -75.8000 204° Southwest 480 552 36,000  Level Montreal Center
02:38PM 50.9333 -75.9167 212° Southwest 480 552 36,000  Level Montreal Center
02:39PM 50.8000 -76.0000 202° Southwest 490 564 36,000  Level Montreal Center
02:40PM 50.6833 -76.1000 209° Southwest 490 564 36,000  Level Montreal Center
02:41PM 50.5667 -76.1833 204° Southwest 480 552 36,000  Level Montreal Center
02:42PM 50.4333 -76.2500 198° South 480 552 36,000  Level Montreal Center
02:43PM 50.3167 -76.3667 213° Southwest 480 552 36,000  Level Montreal Center
02:44PM 50.2000 -76.4333 200° South 490 564 36,000  Level Montreal Center
02:45PM 50.0667 -76.5500 209° Southwest 490 564 36,000  Level Montreal Center
02:46PM 49.9333 -76.6167 198° South 490 564 36,000  Level Montreal Center
02:47PM 49.8167 -76.7000 205° Southwest 490 564 36,000  Level Montreal Center
02:48PM 49.6833 -76.8000 206° Southwest 490 564 36,000  Level Montreal Center
02:49PM 49.5667 -76.8667 200° South 480 552 36,000  Level Montreal Center
02:50PM 49.4333 -76.9667 206° Southwest 490 564 36,000  Level Montreal Center
02:51PM 49.3167 -77.0500 205° Southwest 500 575 36,000  Level Montreal Center
02:52PM 49.1833 -77.1500 206° Southwest 480 552 36,000  Level Montreal Center
02:53PM 49.0667 -77.2167 201° Southwest 500 575 36,000  Level Montreal Center
02:54PM 48.9500 -77.3000 205° Southwest 490 564 36,000  Level Montreal Center
02:55PM 48.8000 -77.4000 204° Southwest 490 564 36,000  Level Montreal Center
02:56PM 48.6833 -77.5000 210° Southwest 490 564 36,000  Level Montreal Center
02:57PM 48.5667 -77.5667 201° Southwest 490 564 36,000  Level Montreal Center
02:58PM 48.4333 -77.6333 198° South 490 564 36,000  Level Montreal Center
02:59PM 48.3167 -77.7333 210° Southwest 490 564 36,000  Level Montreal Center
03:00PM 48.1833 -77.8000 198° South 490 564 36,000  Level Montreal Center
03:01PM 48.0667 -77.8833 206° Southwest 480 552 36,000  Level Montreal Center
03:02PM 47.9167 -77.9667 200° South 480 552 36,000  Level Montreal Center
03:03PM 47.8000 -78.0500 206° Southwest 470 541 36,000  Level Montreal Center
03:04PM 47.6833 -78.1167 201° Southwest 470 541 36,000  Level Montreal Center
03:05PM 47.5667 -78.1833 201° Southwest 470 541 36,000  Level Montreal Center
03:06PM 47.4500 -78.2500 201° Southwest 470 541 36,000  Level Montreal Center
03:07PM 47.3167 -78.3167 199° South 470 541 36,000  Level Montreal Center
03:12PM 46.6741 -78.6789 202° Southwest 485 558 36,000  Level FlightAware ADS-B (CYYZ)
03:12PM 46.5858 -78.7278 201° Southwest 486 559 36,000  Level FlightAware ADS-B (CYYZ)
03:13PM 46.5324 -78.7571 201° Southwest 485 558 36,000  Level FlightAware ADS-B (CYYZ)
03:13PM 46.4619 -78.7959 201° Southwest 485 558 36,000  Level FlightAware ADS-B (CYYZ)
03:14PM 46.3971 -78.8314 201° Southwest 484 557 36,000  Level FlightAware ADS-B (CYYZ)
03:14PM 46.3349 -78.8656 201° Southwest 485 558 36,000  Level FlightAware ADS-B (CYYZ)
03:15PM 46.2700 -78.9011 201° Southwest 486 559 36,000  Level FlightAware ADS-B (CYYZ)
03:15PM 46.2070 -78.9356 201° Southwest 489 563 36,000  Level FlightAware ADS-B (CYYZ)
03:16PM 46.1437 -78.9700 201° Southwest 491 565 36,000  Level FlightAware ADS-B (CYYZ)
03:16PM 46.0796 -79.0048 201° Southwest 494 568 36,000  Level FlightAware ADS-B (CYYZ)
03:17PM 46.0147 -79.0400 201° Southwest 496 571 36,000  Level FlightAware ADS-B (CYYZ)
03:17PM 45.9522 -79.0736 201° Southwest 498 573 36,000  Level FlightAware ADS-B (CYYZ)
03:18PM 45.8867 -79.1088 201° Southwest 500 575 36,000  Level FlightAware ADS-B (CYYZ)
03:18PM 45.8206 -79.1442 201° Southwest 500 575 36,000  Level FlightAware ADS-B (CYYZ)
03:19PM 45.7607 -79.1762 201° Southwest 498 573 36,000  Level FlightAware ADS-B (CYYZ)
03:19PM 45.6936 -79.2120 201° Southwest 497 572 36,000  Level FlightAware ADS-B (CYYZ)
03:20PM 45.6321 -79.2449 201° Southwest 496 571 36,000  Level FlightAware ADS-B (CYYZ)
03:20PM 45.5670 -79.2796 201° Southwest 497 572 36,000  Level FlightAware ADS-B (CYYZ)
03:21PM 45.5013 -79.3145 201° Southwest 497 572 36,000  Level FlightAware ADS-B (CYYZ)
03:21PM 45.4338 -79.3502 201° Southwest 496 571 36,000  Level FlightAware ADS-B (CYYZ)
03:22PM 45.3713 -79.3831 201° Southwest 494 568 36,000  Level FlightAware ADS-B (CYYZ)
03:22PM 45.3099 -79.4154 201° Southwest 492 566 36,000  Level FlightAware ADS-B (CYYZ)
03:23PM 45.2432 -79.4506 201° Southwest 487 560 36,000  Level FlightAware ADS-B (CYYZ)
03:23PM 45.1794 -79.4841 201° Southwest 484 557 36,000  Level FlightAware ADS-B (CYYZ)
03:24PM 45.1168 -79.5168 201° Southwest 482 555 36,000  Level FlightAware ADS-B (CYYZ)
03:24PM 45.0527 -79.5501 201° Southwest 479 551 36,000  Level FlightAware ADS-B (CYYZ)
03:25PM 44.9897 -79.5829 201° Southwest 478 550 36,000  Level FlightAware ADS-B (CYYZ)
03:25PM 44.9295 -79.6141 201° Southwest 474 545 36,000  Level FlightAware ADS-B (CYYZ)
03:26PM 44.8675 -79.6462 201° Southwest 469 540 36,000  Level FlightAware ADS-B (CYYZ)
03:26PM 44.8654 -79.6473 200° South 469 540 36,000  Level FlightAware ADS-B (EPWA / WAW)
03:26PM 44.8074 -79.6772 201° Southwest 466 536 36,000  Level FlightAware ADS-B (CYYZ)
03:27PM 44.7496 -79.7070 201° Southwest 464 534 36,000  Level FlightAware ADS-B (CYYZ)
03:27PM 44.7141 -79.7254 200° South 464 534 36,000  Level FlightAware ADS-B (EPWA / WAW)
03:27PM 44.6858 -79.7399 201° Southwest 462 532 36,000  Level FlightAware ADS-B (CYYZ)
03:28PM 44.6381 -79.7644 200° South 460 529 36,000  Level FlightAware ADS-B (EPWA / WAW)
03:28PM 44.6270 -79.7702 202° Southwest 458 527 36,000  Level FlightAware ADS-B (CYYZ)
03:29PM 44.5591 -79.8139 208° Southwest 449 517 36,000  Level FlightAware ADS-B (CYYZ)
03:29PM 44.5085 -79.8573 213° Southwest 443 510 36,000  Level FlightAware ADS-B (EPWA / WAW)
03:29PM 44.4919 -79.8726 211° Southwest 447 514 36,000  Level FlightAware ADS-B (CYYZ)
03:30PM 44.4383 -79.9222 211° Southwest 447 514 36,000  Level FlightAware ADS-B (CYYZ)
03:30PM 44.4456 -79.9156 213° Southwest 440 506 36,000  Level FlightAware ADS-B (EPWA / WAW)
03:30PM 44.3773 -79.9778 213° Southwest 437 503 36,000  Level FlightAware ADS-B (EPWA / WAW)
03:30PM 44.3721 -79.9824 213° Southwest 436 502 36,000  Level FlightAware ADS-B (CYYZ)
03:31PM 44.3206 -80.0287 213° Southwest 435 501 36,000  Level FlightAware ADS-B (CYYZ)
03:31PM 44.3091 -80.0391 213° Southwest 435 501 36,000  Level FlightAware ADS-B (EPWA / WAW)
03:31PM 44.2723 -80.0719 213° Southwest 433 498 36,000  Level FlightAware ADS-B (CYYZ)
03:32PM 44.2532 -80.0890 213° Southwest 434 499 36,000  Level FlightAware ADS-B (EPWA / WAW)
03:32PM 44.2184 -80.1200 213° Southwest 432 497 36,000  Level FlightAware ADS-B (CYYZ)
03:32PM 44.2016 -80.1351 213° Southwest 431 496 36,000  Level FlightAware ADS-B (CYKF)
03:32PM 44.1683 -80.1647 213° Southwest 429 494 36,000  Level FlightAware ADS-B (CYYZ)
03:33PM 44.1366 -80.1929 213° Southwest 430 495 36,000  Level FlightAware ADS-B (EPWA / WAW)
03:33PM 44.1191 -80.2086 213° Southwest 429 494 36,000  Level FlightAware ADS-B (CYYZ)
03:33PM 44.0694 -80.2528 213° Southwest 432 497 36,000  Level FlightAware ADS-B (CYYZ)
03:33PM 44.0765 -80.2465 213° Southwest 432 497 36,000  Level FlightAware ADS-B (EPWA / WAW)
03:34PM 44.0180 -80.2984 213° Southwest 433 498 36,000  Level FlightAware ADS-B (CYYZ)
03:34PM 44.0122 -80.3035 213° Southwest 433 498 36,000  Level FlightAware ADS-B (EPWA / WAW)
03:34PM 43.9682 -80.3424 213° Southwest 433 498 36,000  Level FlightAware ADS-B (CYYZ)
03:35PM 43.9470 -80.3611 213° Southwest 434 499 36,000  Level FlightAware ADS-B (EPWA / WAW)
03:35PM 43.9159 -80.3884 213° Southwest 433 498 36,000  Level FlightAware ADS-B (CYYZ)
03:35PM 43.8921 -80.4094 213° Southwest 434 499 36,000  Level FlightAware ADS-B (CYKF)
03:35PM 43.8653 -80.4330 213° Southwest 433 498 36,000  Level FlightAware ADS-B (CYYZ)
03:36PM 43.8144 -80.4778 213° Southwest 434 499 36,000  Level FlightAware ADS-B (CYYZ)
03:36PM 43.7638 -80.5222 213° Southwest 433 498 36,000  Level FlightAware ADS-B (CYYZ)
03:36PM 43.7551 -80.5298 213° Southwest 434 499 36,000  Level FlightAware ADS-B (EPWA / WAW)
03:37PM 43.7125 -80.5671 213° Southwest 433 498 36,000  Level FlightAware ADS-B (CYYZ)
03:37PM 43.7136 -80.5661 212° Southwest 433 498 36,000  Level FlightAware ADS-B (CZBA)
03:37PM 43.6620 -80.6112 213° Southwest 434 499 36,000  Level FlightAware ADS-B (CYYZ)
03:38PM 43.6439 -80.6270 212° Southwest 436 502 36,000  Level FlightAware ADS-B (EPWA / WAW)
03:38PM 43.6116 -80.6552 213° Southwest 435 501 36,000  Level FlightAware ADS-B (CYYZ)
03:38PM 43.6225 -80.6457 212° Southwest 436 502 36,000  Level FlightAware ADS-B (MDST / STI)
03:38PM 43.5614 -80.6988 213° Southwest 436 502 36,000  Level FlightAware ADS-B (CYYZ)
03:39PM 43.5079 -80.7452 213° Southwest 437 503 36,000  Level FlightAware ADS-B (CYYZ)
03:39PM 43.4572 -80.7892 213° Southwest 437 503 36,000  Level FlightAware ADS-B (CYYZ)
03:40PM 43.4473 -80.7978 212° Southwest 439 505 36,000  Level FlightAware ADS-B (EPWA / WAW)
03:40PM 43.4086 -80.8312 213° Southwest 438 504 36,000  Level FlightAware ADS-B (CYYZ)
03:40PM 43.3790 -80.8568 212° Southwest 439 505 36,000  Level FlightAware ADS-B (CYKF)
03:40PM 43.3537 -80.8786 213° Southwest 439 505 36,000  Level FlightAware ADS-B (CYYZ)
03:41PM 43.3039 -80.9215 212° Southwest 440 506 36,000  Level FlightAware ADS-B (EPWA / WAW)
03:41PM 43.3049 -80.9206 213° Southwest 439 505 36,000  Level FlightAware ADS-B (CYYZ)
03:41PM 43.2509 -80.9669 213° Southwest 439 505 36,000  Level FlightAware ADS-B (CYYZ)
03:42PM 43.2205 -80.9930 212° Southwest 439 505 36,000  Level FlightAware ADS-B (EPWA / WAW)
03:42PM 43.2000 -81.0106 213° Southwest 438 504 36,000  Level FlightAware ADS-B (CYYZ)
03:42PM 43.1496 -81.0538 213° Southwest 440 506 36,000  Level FlightAware ADS-B (CYYZ)
03:42PM 43.1460 -81.0569 212° Southwest 440 506 36,000  Level FlightAware ADS-B (EPWA / WAW)
03:43PM 43.0962 -81.0993 213° Southwest 441 507 36,000  Level FlightAware ADS-B (CYYZ)
03:43PM 43.1014 -81.0949 212° Southwest 442 509 36,000  Level FlightAware ADS-B (EPWA / WAW)
03:43PM 43.0436 -81.1430 209° Southwest 446 513 36,000  Level FlightAware ADS-B (CYYZ)
03:44PM 43.0227 -81.1574 206° Southwest 450 518 36,000  Level FlightAware ADS-B (EPWA / WAW)
03:44PM 42.9603 -81.1952 205° Southwest 452 520 36,000  Level FlightAware ADS-B (EPWA / WAW)
03:44PM 42.9490 -81.2022 206° Southwest 451 519 36,000  Level FlightAware ADS-B (CYYZ)
03:45PM 42.8931 -81.2380 205° Southwest 450 518 36,000  Level FlightAware ADS-B (CYYZ)
03:45PM 42.8874 -81.2415 205° Southwest 451 519 36,000  Level FlightAware ADS-B (EPWA / WAW)
03:45PM 42.8349 -81.2744 205° Southwest 451 519 36,000  Level FlightAware ADS-B (CYYZ)
03:46PM 42.7843 -81.3057 204° Southwest 451 519 36,000  Level FlightAware ADS-B (EPWA / WAW)
03:46PM 42.7786 -81.3092 205° Southwest 451 519 36,000  Level FlightAware ADS-B (CYYZ)
03:46PM 42.7243 -81.3426 205° Southwest 452 520 36,000  Level FlightAware ADS-B (CYYZ)
03:47PM 42.6865 -81.3658 204° Southwest 453 521 36,000  Level FlightAware ADS-B (EPWA / WAW)
03:47PM 42.6641 -81.3795 205° Southwest 453 521 36,000  Level FlightAware ADS-B (CYYZ)
03:47PM 42.6189 -81.4072 204° Southwest 452 520 36,000  Level FlightAware ADS-B (CYKF)
03:47PM 42.6079 -81.4139 205° Southwest 452 520 36,000  Level FlightAware ADS-B (CYYZ)
03:48PM 42.5521 -81.4480 205° Southwest 449 517 36,000  Level FlightAware ADS-B (CYYZ)
03:48PM 42.5825 -81.4295 204° Southwest 450 518 36,000  Level FlightAware ADS-B (EPWA / WAW)
03:48PM 42.4934 -81.4837 205° Southwest 449 517 36,000  Level FlightAware ADS-B (CYYZ)
03:49PM 42.4367 -81.5182 205° Southwest 450 518 36,000  Level FlightAware ADS-B (CYYZ)
03:49PM 42.5104 -81.4733 204° Southwest 452 520 36,000  Level FlightAware ADS-B (CYKF)
03:49PM 42.3820 -81.5514 205° Southwest 451 519 36,000  Level FlightAware ADS-B (CYYZ)
03:50PM 42.3224 -81.5875 205° Southwest 450 518 36,000  Level FlightAware ADS-B (CYYZ)
03:50PM 42.2684 -81.6202 205° Southwest 450 518 36,000  Level FlightAware ADS-B (CYYZ)
03:51PM 42.2149 -81.6525 205° Southwest 450 518 36,000  Level FlightAware ADS-B (CYYZ)
03:51PM 42.1721 -81.6784 205° Southwest 449 517 36,000  Level FlightAware ADS-B (CYYZ)
03:52PM 42.0962 -81.7241 205° Southwest 447 514 36,000  Level FlightAware ADS-B (CYYZ)
03:52PM 42.0577 -81.7472 205° Southwest 445 512 36,000  Level FlightAware ADS-B (CYYZ)
03:53PM 41.9412 -81.8169 205° Southwest 444 511 36,000  Level FlightAware ADS-B (CYYZ)
03:54PM 41.8700 -81.8595 205° Southwest 444 511 36,000  Level FlightAware ADS-B (CYYZ)
03:54PM 41.8223 -81.8879 204° Southwest 445 512 36,000  Level FlightAware ADS-B (CYYZ)
03:55PM 41.7934 -81.9051 204° Southwest 445 512 36,000  Level FlightAware ADS-B (CYYZ)
03:56PM 41.5994 -82.0200 204° Southwest 444 511 36,000  Level FlightAware ADS-B (CYYZ)
03:58PM 41.4234 -82.1236 204° Southwest 441 507 36,000  Level FlightAware ADS-B (CYYZ)
03:58PM 41.3831 -82.1471 203° Southwest 442 509 36,000  Level FlightAware ADS-B (CYYZ)
03:59PM 41.2340 -82.2057 196° South 445 512 36,000  Level FlightAware ADS-B (CYYZ)
04:00PM 41.1822 -82.2244 196° South 444 511 36,000  Level Cleveland Center
04:01PM 41.0436 -82.2753 195° South 443 510 36,000  Level Cleveland Center
04:07PM 40.3434 -82.5214 195° South 439 505 36,000  Level FlightAware ADS-B
04:07PM 40.2869 -82.5411 195° South 440 506 36,000  Level FlightAware ADS-B
04:08PM 40.2290 -82.5613 195° South 440 506 36,000  Level FlightAware ADS-B
04:09PM 40.1365 -82.5869 187° South 440 506 36,000  Level FlightAware ADS-B
04:09PM 40.0825 -82.5920 182° South 438 504 36,000  Level FlightAware ADS-B
04:10PM 40.0187 -82.5966 184° South 431 496 36,000  Level FlightAware ADS-B
04:10PM 39.9930 -82.5987 183° South 429 494 36,000  Level FlightAware ADS-B
04:11PM 39.8696 -82.6075 183° South 430 495 36,000  Level FlightAware ADS-B
04:12PM 39.7897 -82.6129 183° South 430 495 36,000  Level FlightAware ADS-B (KPMH)
04:12PM 39.7287 -82.6170 183° South 430 495 36,000  Level FlightAware ADS-B (KPMH)
04:13PM 39.6647 -82.6213 183° South 431 496 36,000  Level FlightAware ADS-B
04:13PM 39.6061 -82.6253 183° South 431 496 36,000  Level FlightAware ADS-B
04:14PM 39.5323 -82.6302 183° South 431 496 36,000  Level FlightAware ADS-B (KPMH)
04:14PM 39.4523 -82.6356 183° South 433 498 36,000  Level FlightAware ADS-B
04:15PM 39.3832 -82.6402 183° South 434 499 36,000  Level FlightAware ADS-B (KPMH)
04:16PM 39.3129 -82.6449 183° South 434 499 36,000  Level FlightAware ADS-B
04:16PM 39.2373 -82.6498 183° South 422 486 36,000  Level FlightAware ADS-B (KPMH)
04:17PM 39.1523 -82.6556 183° South 419 482 36,000  Level FlightAware ADS-B (KPMH)
04:18PM 39.0763 -82.6606 183° South 417 480 36,000  Level FlightAware ADS-B (KPMH)
04:18PM 38.9961 -82.6658 183° South 414 476 36,000  Level FlightAware ADS-B (KPMH)
04:19PM 38.9211 -82.6708 183° South 410 472 36,000  Level FlightAware ADS-B (KPMH)
04:20PM 38.8440 -82.6759 183° South 407 468 36,000  Level FlightAware ADS-B (KPMH)
04:20PM 38.7881 -82.6796 183° South 403 464 36,000  Level FlightAware ADS-B (KPMH)
04:21PM 38.7125 -82.6845 183° South 401 461 36,000  Level FlightAware ADS-B (KPMH)
04:22PM 38.5731 -82.6942 183° South 400 460 36,000  Level Indianapolis Center
04:23PM 38.4600 -82.7017 183° South 400 460 36,000  Level Indianapolis Center
04:24PM 38.3489 -82.7083 183° South 401 461 36,000  Level Indianapolis Center
04:25PM 38.2369 -82.7147 183° South 400 460 36,000  Level Indianapolis Center
04:26PM 38.1272 -82.7225 183° South 400 460 36,000  Level Indianapolis Center
04:27PM 38.0169 -82.7308 183° South 397 457 36,000  Level Indianapolis Center
04:28PM 37.9067 -82.7372 183° South 397 457 36,000  Level Indianapolis Center
04:29PM 37.7783 -82.7461 183° South 397 457 36,000  Level Indianapolis Center
04:30PM 37.6689 -82.7672 189° South 397 457 36,000  Level Indianapolis Center
04:31PM 37.5672 -82.8236 204° Southwest 397 457 36,000  Level Indianapolis Center
04:32PM 37.4669 -82.8917 208° Southwest 405 466 36,000  Level Indianapolis Center
04:33PM 37.3672 -82.9564 207° Southwest 405 466 36,000  Level Indianapolis Center
04:34PM 37.2667 -83.0222 208° Southwest 405 466 36,000  Level Indianapolis Center
04:35PM 37.1667 -83.0886 208° Southwest 406 467 36,000  Level Indianapolis Center
04:36PM 37.0494 -83.1653 208° Southwest 406 467 36,000  Level Indianapolis Center
04:37PM 36.9481 -83.2308 207° Southwest 409 471 36,000  Level Indianapolis Center
04:38PM 36.8456 -83.2964 207° Southwest 413 475 36,000  Level Indianapolis Center
04:40PM 36.7419 -83.3622 207° Southwest 414 476 36,000  Level Indianapolis Center
04:41PM 36.6383 -83.4292 207° Southwest 416 479 36,000  Level Indianapolis Center
04:42PM 36.5328 -83.4958 207° Southwest 420 483 36,000  Level Indianapolis Center
04:43PM 36.4236 -83.5653 207° Southwest 423 487 36,000  Level Indianapolis Center
04:44PM 36.3169 -83.6328 207° Southwest 425 489 36,000  Level Indianapolis Center
04:45PM 36.2083 -83.7022 207° Southwest 432 497 36,000  Level Indianapolis Center
04:45PM 36.1225 -83.7586 208° Southwest 432 497 36,000  Level Atlanta Center
04:46PM 36.0331 -83.8153 207° Southwest 438 504 36,000  Level Atlanta Center
04:52PM 35.2238 -84.0597 191° South 462 532 36,000  Level FlightAware ADS-B (KDZJ)
04:53PM 35.1506 -84.0772 191° South 461 531 36,000  Level FlightAware ADS-B (KDZJ)
04:54PM 35.0547 -84.1002 191° South 474 545 36,000  Level FlightAware ADS-B (KDZJ)
04:54PM 34.9634 -84.1220 191° South 478 550 36,000  Level FlightAware ADS-B (KDZJ)
04:55PM 34.8782 -84.1422 191° South 478 550 36,000  Level FlightAware ADS-B (KDZJ)
04:56PM 34.7897 -84.1632 191° South 474 545 36,000  Level FlightAware ADS-B (KDZJ)
04:56PM 34.6745 -84.1906 191° South 477 549 36,000  Level FlightAware ADS-B (KDZJ)
04:57PM 34.5762 -84.2139 191° South 490 564 36,000  Level FlightAware ADS-B (KDZJ)
04:58PM 34.4780 -84.2372 191° South 495 570 36,000  Level FlightAware ADS-B (KDZJ)
04:59PM 34.3867 -84.2561 185° South 501 577 36,000  Level FlightAware ADS-B (KDZJ)
04:59PM 34.2929 -84.2591 181° South 499 574 36,000  Level FlightAware ADS-B (KDZJ)
05:00PM 34.2008 -84.2615 181° South 499 574 36,000  Level FlightAware ADS-B (KDZJ)
05:01PM 34.1069 -84.2643 182° South 497 572 36,000  Level FlightAware ADS-B (KDZJ)
05:01PM 34.0231 -84.2672 182° South 496 571 36,000  Level FlightAware ADS-B (KDZJ)
05:02PM 33.9275 -84.2717 182° South 497 572 36,000 -480 Level Atlanta Center
05:03PM 33.8003 -84.2764 182° South 502 578 35,100 -540 Descending Atlanta Center
05:04PM 33.6583 -84.2808 181° South 502 578 35,000 -60 Descending Atlanta Center
05:05PM 33.5039 -84.2856 181° South 507 583 35,000  Level Atlanta Center
05:06PM 33.3619 -84.2900 181° South 512 589 35,000  Level Atlanta Center
05:07PM 33.2219 -84.2947 182° South 512 589 35,000  Level Atlanta Center
05:08PM 33.0822 -84.2992 182° South 512 589 35,000  Level Atlanta Center
05:09PM 32.9403 -84.3061 182° South 512 589 35,000  Level Atlanta Center
05:10PM 32.8003 -84.3131 182° South 512 589 35,000  Level Atlanta Center
05:11PM 32.6750 -84.3128 180° South 512 589 35,000  Level Atlanta Center
05:12PM 32.5353 -84.3172 182° South 512 589 35,000  Level Atlanta Center
05:13PM 32.3956 -84.3217 182° South 512 589 35,000  Level Atlanta Center
05:16PM 32.0311 -84.3311 181° South 512 589 35,000  Level Jacksonville Center
05:17PM 31.8889 -84.3361 182° South 517 595 35,000  Level Jacksonville Center
05:18PM 31.7450 -84.3414 182° South 517 595 35,000  Level Jacksonville Center
05:19PM 31.6028 -84.3439 181° South 517 595 35,000  Level Jacksonville Center
05:20PM 31.4608 -84.3492 182° South 517 595 35,000  Level Jacksonville Center
05:21PM 31.3208 -84.3542 182° South 517 595 35,000  Level Jacksonville Center
05:22PM 31.1789 -84.3569 181° South 512 589 35,000  Level Jacksonville Center
05:23PM 31.0369 -84.3619 182° South 519 597 35,000  Level Jacksonville Center
05:24PM 30.8928 -84.3644 181° South 519 597 35,000  Level Jacksonville Center
05:25PM 30.7486 -84.3694 182° South 519 597 35,000  Level Jacksonville Center
05:26PM 30.6047 -84.3528 174° South 514 592 35,000  Level Jacksonville Center
05:27PM 30.4758 -84.3097 164° South 519 597 35,000  Level Jacksonville Center
05:28PM 30.3408 -84.2333 154° Southeast 527 606 35,000  Level Jacksonville Center
05:29PM 30.1997 -84.1422 151° Southeast 528 608 35,000  Level Jacksonville Center
05:30PM 30.0628 -84.0542 151° Southeast 534 615 35,000  Level Jacksonville Center
05:31PM 29.9322 -83.9686 150° Southeast 539 620 35,000  Level Jacksonville Center
05:32PM 29.8014 -83.8833 151° Southeast 539 620 35,000  Level Jacksonville Center
05:33PM 29.6683 -83.8008 152° Southeast 539 620 35,000  Level Jacksonville Center
05:34PM 29.5353 -83.7136 150° Southeast 539 620 35,000  Level Jacksonville Center
05:35PM 29.4022 -83.6292 151° Southeast 539 620 35,000  Level Jacksonville Center
05:36PM 29.2836 -83.5497 150° Southeast 539 620 35,000  Level Jacksonville Center
05:37PM 29.1503 -83.4681 152° Southeast 539 620 35,000  Level Jacksonville Center
05:38PM 29.0214 -83.3842 150° Southeast 539 620 35,000  Level Jacksonville Center
05:44PM 28.2045 -82.8687 151° Southeast 538 619 35,000  Level FlightAware ADS-B (KMCO)
05:45PM 28.0083 -82.7467 151° Southeast 539 620 35,000  Level FlightAware ADS-B (KMCO)
05:47PM 27.7509 -82.5798 149° Southeast 542 624 35,000  Level FlightAware ADS-B (KMCO)
05:48PM 27.6889 -82.5381 149° Southeast 541 623 35,000  Level FlightAware ADS-B (KMCO)
05:48PM 27.6142 -82.4884 149° Southeast 542 624 35,000  Level FlightAware ADS-B (KMCO)
05:50PM 27.4241 -82.3623 150° Southeast 538 619 35,000  Level FlightAware ADS-B (KMCO)
05:51PM 27.2996 -82.2799 150° Southeast 532 612 35,000  Level FlightAware ADS-B (KMCO)
05:52PM 27.1084 -82.1540 150° Southeast 528 608 35,000  Level FlightAware ADS-B (KMCO)
05:54PM 26.8925 -82.0122 150° Southeast 528 608 35,000  Level FlightAware ADS-B (KMCO)
05:55PM 26.7865 -81.9429 150° Southeast 526 605 35,000  Level FlightAware ADS-B (KMCO)
05:55PM 26.7007 -81.8869 150° Southeast 527 606 35,000  Level FlightAware ADS-B (KMCO)
05:56PM 26.6179 -81.8330 150° Southeast 528 608 35,000  Level FlightAware ADS-B (KMCO)
05:57PM 26.5535 -81.7933 154° Southeast 525 604 35,000  Level FlightAware ADS-B (KMCO)
05:57PM 26.4851 -81.7612 159° South 519 597 35,000  Level FlightAware ADS-B (KMCO)
05:58PM 26.3698 -81.7164 160° South 518 596 35,000  Level FlightAware ADS-B (KMCO)
05:59PM 26.2239 -81.6596 161° South 518 596 35,000  Level FlightAware ADS-B (RJTF)
06:00PM 26.1492 -81.6314 161° South 519 597 35,000  Level FlightAware ADS-B (KMCO)
06:00PM 26.0745 -81.6032 161° South 517 595 35,000  Level FlightAware ADS-B (KMCO)
06:01PM 25.9411 -81.5529 161° South 513 590 35,000  Level FlightAware ADS-B (KMCO)
06:02PM 25.8719 -81.5269 161° South 514 592 35,000  Level FlightAware ADS-B (KMCO)
06:02PM 25.8030 -81.5010 161° South 515 593 35,000  Level FlightAware ADS-B (KMCO)
06:03PM 25.7369 -81.4762 161° South 516 594 35,000 -120 Level FlightAware ADS-B (KMCO)
06:03PM 25.6852 -81.4568 161° South 517 595 34,900 -480 Descending FlightAware ADS-B (KMCO)
06:04PM 25.5647 -81.4144 161° South 519 597 34,400 -960 Descending Miami Center
06:05PM 25.4283 -81.3633 161° South 514 592 33,400 -720 Descending Miami Center
06:06PM 25.2942 -81.3147 162° South 514 592 33,000 -240 Descending Miami Center
06:07PM 25.1578 -81.2617 161° South 514 592 33,000 -180 Level Miami Center
06:08PM 25.0214 -81.2156 163° South 514 592 32,700 -420 Descending Miami Center
06:09PM 24.8983 -81.2111 178° South 479 551 32,200 -360 Descending Miami Center
06:10PM 24.7750 -81.2092 179° South 464 534 32,000 -180 Descending Miami Center
06:11PM 24.6519 -81.2117 181° South 449 517 31,900 -900 Descending Miami Center
06:12PM 24.5267 -81.2094 179° South 449 517 30,300 -1,560 Descending Miami Center
06:13PM 24.4033 -81.2097 180° South 449 517 28,800 -1,440 Descending Miami Center
06:14PM 24.2864 -81.2125 181° South 438 504 27,500 -1,320 Descending Miami Center
06:15PM 24.1711 -81.2200 183° South 425 489 26,200 -1,260 Descending Miami Center
06:16PM 24.0700 -81.2506 195° South 404 465 25,000 -600 Descending Miami Center
06:17PM 23.9725 -81.2972 204° Southwest 385 443 25,000  Level Miami Center
06:19PM 23.8173 -81.4194 225° Southwest  Level FlightAware Approximate
06:26PM 23.2170 -82.1235 226° Southwest  Level FlightAware Approximate
06:27PM 23.1253 -82.2165 212° Southwest  Level FlightAware Approximate
06:28PM 23.0445 -82.3184 231° Southwest  Level FlightAware Approximate
06:29PM 22.9891 -82.4091 223° Southwest  Level Estimated
06:30PM 22.9891 -82.4091 223° Southwest  Level Estimated
06:31PM 22.9891 -82.4091 223° Southwest  Level Estimated
06:32PM 22.9891 -82.4091 223° Southwest  Level Estimated
06:33PM 22.9891 -82.4091 223° Southwest  Level Estimated
06:34PM 22.9891 -82.4091 223° Southwest  Level Estimated
06:35PM 22.9891 -82.4091 223° Southwest  Level Estimated
06:36PM 22.9891 -82.4091 223° Southwest  Level Estimated
06:37PM 22.9891 -82.4091 223° Southwest  Level Estimated
06:38PM 22.9891 -82.4091 223° Southwest  Level Estimated
06:39PM 22.9891 -82.4091 223° Southwest  Level Estimated
06:40PM 22.9891 -82.4091 223° Southwest  Level Estimated
06:41PM 22.9891 -82.4091 223° Southwest  Level Estimated
06:42PM 22.9891 -82.4091 223° Southwest  Level Estimated
06:43PM 22.9891 -82.4091 223° Southwest  Level Estimated
06:44PM 22.9891 -82.4091 223° Southwest  Level Estimated
06:45PM 22.9891 -82.4091 223° Southwest  Level Estimated
06:46PM 22.9891 -82.4091 223° Southwest  Level Estimated
06:47PM 22.9891 -82.4091 223° Southwest  Level Estimated
06:48PM 22.9891 -82.4091 223° Southwest  Level Estimated
06:49PM 22.9891 -82.4091 223° Southwest  Level Estimated
06:50PM 22.9891 -82.4091 223° Southwest  Level Estimated
06:51PM 22.9891 -82.4091 223° Southwest  Level Estimated
06:52PM 22.9891 -82.4091 223° Southwest  Level Estimated
06:53PM 22.9891 -82.4091 223° Southwest  Level Estimated